This is the latest recevied weather packets stored in our database for station/object OM8AKX-4. If no packets are shown the sender has not sent any weather packets the latest 10 day(s).
| Time | Temp. | Humidity | Pressure | Rain* | Wind** | Luminosity | Snow |
|---|---|---|---|---|---|---|---|
| 1777506878 | -6.67° C | 100% | 882.6 hPa | - | - | - | - |
| 1777505977 | -6.67° C | 100% | 882.4 hPa | - | - | - | - |
| 1777505077 | -6.11° C | 100% | 882.2 hPa | - | - | - | - |
| 1777504177 | -6.11° C | 100% | 882.2 hPa | - | - | - | - |
| 1777503277 | -6.11° C | 96% | 882.3 hPa | - | - | - | - |
| 1777502377 | -6.11° C | 92% | 882.5 hPa | - | - | - | - |
| 1777501477 | -6.11° C | 86% | 882.1 hPa | - | - | - | - |
| 1777500577 | -6.11° C | 82% | 882.2 hPa | - | - | - | - |
| 1777499677 | -5.56° C | 78% | 882 hPa | - | - | - | - |
| 1777498777 | -5.56° C | 76% | 882.1 hPa | - | - | - | - |
| 1777497877 | -5.56° C | 73% | 881.9 hPa | - | - | - | - |
| 1777496976 | -5.56° C | 71% | 881.8 hPa | - | - | - | - |
| 1777496076 | -5° C | 69% | 881.8 hPa | - | - | - | - |
| 1777495176 | -5° C | 66% | 881.6 hPa | - | - | - | - |
| 1777494276 | -4.44° C | 63% | 882 hPa | - | - | - | - |
| 1777493376 | -4.44° C | 59% | 881.5 hPa | - | - | - | - |
| 1777492475 | -3.89° C | 56% | 881.5 hPa | - | - | - | - |
| 1777491576 | -3.89° C | 55% | 881.7 hPa | - | - | - | - |
| 1777490675 | -3.89° C | 54% | 881.2 hPa | - | - | - | - |
| 1777489777 | -3.89° C | 53% | 880.8 hPa | - | - | - | - |
| 1777488877 | -3.33° C | 52% | 881 hPa | - | - | - | - |
| 1777487977 | -3.33° C | 50% | 881 hPa | - | - | - | - |
| 1777487077 | -2.78° C | 49% | 880.5 hPa | - | - | - | - |
| 1777486178 | -2.78° C | 48% | 880.2 hPa | - | - | - | - |
| 1777485277 | -2.78° C | 47% | 880.2 hPa | - | - | - | - |
* Rain since midnight (hover to see other rain measurements)
** Current wind speed in m/s (hover to see current wind gust speed)